AirNav   Everest Fuels
 
 1767 users online  

83GA Brock Airpark
Bainbridge, Georgia, USA

GOING TO BAINBRIDGE?


FAA INFORMATION EFFECTIVE 11 AUGUST 2022

Location

FAA Identifier: 83GA
Lat/Long: 30-59-59.0000N 084-30-22.0000W
30-59.983333N 084-30.366667W
30.9997222,-84.5061111
(estimated)
Elevation: 130 ft. / 40 m (estimated)
Variation: 02W (1990)
From city: 5 miles N of BAINBRIDGE, GA
Time zone: UTC -4 (UTC -5 during Standard Time)
Zip code: 31717

Airport Operations

Airport use: Private use. Permission required prior to landing
Activation date: 08/1992
Control tower: no
ARTCC: JACKSONVILLE CENTER
FSS: MACON FLIGHT SERVICE STATION
Attendance: CONTINUOUS
Wind indicator: yes
Segmented circle: no

Airport Communications

UNICOM: 122.8
WX AWOS-3PT at BGE (7 nm W): 121.125 (229-248-2104)
WX AWOS-3T at CXU (19 nm NE): 118.675 (229-336-0744)
WX AWOS-3PT at 17J (19 nm W): 119.675 (229-524-0001)

Nearby radio navigation aids

VOR radial/distance  VOR name  Freq  Var
SZWr344/27.5SEMINOLE VORTAC117.5002E
MAIr068/34.3MARIANNA VORTAC114.0000E

 
NDB name  Hdg/Dist  Freq  Var  ID
WILLIS035/1.935904WLYZ .-.. -.-- --..
CAIDY295/19.133804WCYR -.-. -.-- .-.
PATON279/35.024505WGTP --. - .--.
SOYYA080/37.832902WSMY ... -- -.--

Airport Services

Fuel available: 100LL

Runway Information

Runway 18/36

Dimensions: 3450 x 100 ft. / 1052 x 30 m
Surface: turf
RUNWAY 18  RUNWAY 36
Traffic pattern: leftleft
Obstructions: 15 ft. roadnone

Airport Ownership and Management from official FAA records

Ownership: Privately-owned
Owner: ADOLPH BROCK, JR
1239 LAKE DOUGLAS ROAD
BAINBRIDGE, GA 31717
Phone 912-246-8652
Manager: STEPHEN B. BROCK
RT 6 BOX 1456 ADOLPH BROCK RD
BAINBRIDGE, GA 31717

Airport Operational Statistics

Aircraft based on the field: 7
Single engine airplanes: 6
Multi engine airplanes: 1
    

Additional Remarks

FOR CD CTC TALLAHASSEE APCH AT 850-942-8311, WHEN APCH CLSD CTC JACKSONVILLE ARTCC AT 904-845-1592.

Instrument Procedures

There are no published instrument procedures at 83GA.

Some nearby airports with instrument procedures:

KBGE - Decatur County Industrial Air Park (7 nm W)
KCXU - Camilla-Mitchell County Airport (19 nm NE)
17J - Donalsonville Municipal Airport (19 nm W)
70J - Cairo-Grady County Airport (19 nm E)
2J9 - Quincy Municipal Airport (24 nm S)
 
Loc | Ops | Rwys | IFR | FBO | Links
Com | Nav | Svcs | Stats | Notes
Area around 83GA (Brock Airpark)
 
Road maps at: MapQuest Bing Google
 
Aerial photo
No photo
 
Sectional chart

 
Airport distance calculator
Flying to Brock Airpark? Find the distance to fly.

From to 83GA

Sunrise and sunset
Times for 17-Aug-2022
 Local
(UTC-4)
 Zulu
(UTC)
Morning civil twilight06:4110:41
Sunrise07:0611:06
Sunset20:1800:18
Evening civil twilight20:4300:43

Current date and time
Zulu (UTC)  17-Aug-2022 20:01:29
Local (UTC-4)  17-Aug-2022 16:01:29
 
METAR
KBGE 
7nm W 
171955Z AUTO 01011KT 10SM VCTS SCT022 SCT050 BKN120 31/23 A2994 RMK AO2 LTG DSNT E AND S T03140230
KCXU 
19nm NE 
171955Z AUTO 27004KT 10SM SCT015 SCT026 SCT035 27/22 A2996 RMK AO1 T02650215
K17J 
19nm W 
171955Z AUTO 01012KT 10SM CLR 31/20 A2994 RMK AO2 LTG DSNT E T03110202
TAF
KABY 
36nm NE 
171753Z 1718/1818 32007KT P6SM VCTS SCT035CB BKN080 TEMPO 1720/1723 VRB15G25KT 3SM TSRA BKN035CB BKN080 OVC120 FM180100 VRB03KT P6SM BKN250 FM180900 13004KT P6SM VCTS BKN050CB FM181200 VRB05KT 4SM -TSRA BR FEW007 SCT010CB OVC050 FM181600 26003KT 5SM -SHRA BR SCT015 OVC030
KTLH 
37nm S 
171745Z 1718/1818 31005KT P6SM FEW040 FEW110 FM172200 26006KT P6SM VCTS SCT035CB BKN060 TEMPO 1722/1801 VRB15G25KT 2SM +TSRA BKN035CB OVC060 FM180200 20003KT P6SM BKN250 FM181200 29004KT P6SM VCTS SCT050CB SCT100
NOTAMs
Click for the latest NOTAMs
NOTAMs are issued by the DoD/FAA and will open in a separate window not controlled by AirNav.

 

 
 

Would you like to see your business listed on this page?

 If your business provides an interesting product or service to pilots, flight crews, aircraft, or users of the Brock Airpark, you should consider listing it here.  To start the listing process, click on the button below
 
Add a business
 

Other Pages about Brock Airpark

Update a link
 
Copyright © AirNav, LLC. All rights reserved. Privacy Policy  Contact